Overview Statistics Trail Chart Weather Telemetry Raw packets
 

This is the latest recevied weather packets stored in our database for station/object HS2XQB-3. If no packets are shown the sender has not sent any weather packets the latest 10 day(s).

<< 16 17 18 19 >>
Time Temp. Humidity Pressure Rain* Wind** Luminosity Snow
1787898326 36.67° C 54% 1003 hPa - - 0 W/m² -
1787896504 37.22° C 54% 1004 hPa - - 0 W/m² -
1787894682 36.11° C 56% 1004 hPa - - 0 W/m² -
1787892860 35° C 58% 1005 hPa - - 0 W/m² -
1787891037 35.56° C 56% 1005 hPa - - 0 W/m² -
1787889216 36.11° C 56% 1005 hPa - - 0 W/m² -
1787887393 35° C 57% 1006 hPa - - 0 W/m² -
1787885571 34.44° C 58% 1006 hPa - - 0 W/m² -
1787883749 34.44° C 59% 1006 hPa - - 0 W/m² -
1787880105 33.89° C 62% 1005 hPa - - 0 W/m² -
1787878283 32.78° C 63% 1005 hPa - - 0 W/m² -
1787876461 31.67° C 65% 1004 hPa - - 0 W/m² -
1787874639 30.56° C 67% 1004 hPa - - 0 W/m² -
1787872817 30.56° C 66% 1004 hPa - - 0 W/m² -
1787870995 30° C 66% 1003 hPa - - 0 W/m² -
1787869176 30° C 66% 1004 hPa - - 0 W/m² -
1787867351 30° C 65% 1004 hPa - - 0 W/m² -
1787865529 29.44° C 63% 1003 hPa - - 0 W/m² -
1787863707 29.44° C 62% 1003 hPa - - 0 W/m² -
1787861885 28.89° C 62% 1003 hPa - - 0 W/m² -
1787860062 28.89° C 62% 1003 hPa - - 0 W/m² -
1787858240 28.33° C 61% 1004 hPa - - 0 W/m² -

* Rain since midnight (hover to see other rain measurements)
** Current wind speed in m/s (hover to see current wind gust speed)